owner,sensor,date,latitude,longitude,sea_surface_height_above_sea_level,qcFlag 
TCOON,ioos:station:TCOON:068:1,2015-03-01T00:12:00Z,27.2970,-97.4049,4.312,1111122 
TCOON,ioos:station:TCOON:068:1,2015-03-01T01:12:00Z,27.2970,-97.4049,4.309,1111122 
TCOON,ioos:station:TCOON:068:1,2015-03-01T02:12:00Z,27.2970,-97.4049,4.305,1111122 
TCOON,ioos:station:TCOON:068:1,2015-03-01T03:12:00Z,27.2970,-97.4049,4.318,1111122 
TCOON,ioos:station:TCOON:068:1,2015-03-01T04:12:00Z,27.2970,-97.4049,4.322,1111122 
TCOON,ioos:station:TCOON:068:1,2015-03-01T05:18:00Z,27.2970,-97.4049,4.323,1111122 
TCOON,ioos:station:TCOON:068:1,2015-03-01T06:18:00Z,27.2970,-97.4049,4.323,1111122 
TCOON,ioos:station:TCOON:068:1,2015-03-01T07:12:00Z,27.2970,-97.4049,4.327,1111122 
TCOON,ioos:station:TCOON:068:1,2015-03-01T08:18:00Z,27.2970,-97.4049,4.333,1111122 
TCOON,ioos:station:TCOON:068:1,2015-03-01T09:18:00Z,27.2970,-97.4049,4.335,1111122 
TCOON,ioos:station:TCOON:068:1,2015-03-01T10:12:00Z,27.2970,-97.4049,4.339,1111122 
TCOON,ioos:station:TCOON:068:1,2015-03-01T11:12:00Z,27.2970,-97.4049,4.335,1111122 
TCOON,ioos:station:TCOON:068:1,2015-03-01T12:12:00Z,27.2970,-97.4049,4.334,1111122 
TCOON,ioos:station:TCOON:068:1,2015-03-01T13:12:00Z,27.2970,-97.4049,4.332,1111122 
TCOON,ioos:station:TCOON:068:1,2015-03-01T14:12:00Z,27.2970,-97.4049,4.331,1111122 
TCOON,ioos:station:TCOON:068:1,2015-03-01T15:12:00Z,27.2970,-97.4049,4.331,1111122 
TCOON,ioos:station:TCOON:068:1,2015-03-01T16:12:00Z,27.2970,-97.4049,4.33,1111122 
TCOON,ioos:station:TCOON:068:1,2015-03-01T17:12:00Z,27.2970,-97.4049,4.334,1111122 
TCOON,ioos:station:TCOON:068:1,2015-03-01T18:12:00Z,27.2970,-97.4049,4.329,1111122 
TCOON,ioos:station:TCOON:068:1,2015-03-01T19:12:00Z,27.2970,-97.4049,4.332,1111122 
TCOON,ioos:station:TCOON:068:1,2015-03-01T20:12:00Z,27.2970,-97.4049,4.332,1111122 
TCOON,ioos:station:TCOON:068:1,2015-03-01T21:12:00Z,27.2970,-97.4049,4.325,1111122 
TCOON,ioos:station:TCOON:068:1,2015-03-01T22:12:00Z,27.2970,-97.4049,4.325,1111122 
TCOON,ioos:station:TCOON:068:1,2015-03-01T23:12:00Z,27.2970,-97.4049,4.321,1111122 
TCOON,ioos:station:TCOON:068:1,2015-03-02T00:12:00Z,27.2970,-97.4049,4.319,1111122 
TCOON,ioos:station:TCOON:068:1,2015-03-02T01:12:00Z,27.2970,-97.4049,4.322,1111122 
TCOON,ioos:station:TCOON:068:1,2015-03-02T02:12:00Z,27.2970,-97.4049,4.325,1111122 
TCOON,ioos:station:TCOON:068:1,2015-03-02T03:18:00Z,27.2970,-97.4049,4.326,1111122 
TCOON,ioos:station:TCOON:068:1,2015-03-02T04:18:00Z,27.2970,-97.4049,4.326,1111122 
TCOON,ioos:station:TCOON:068:1,2015-03-02T05:12:00Z,27.2970,-97.4049,4.324,1111122 
TCOON,ioos:station:TCOON:068:1,2015-03-02T06:18:00Z,27.2970,-97.4049,4.327,1111122 
TCOON,ioos:station:TCOON:068:1,2015-03-02T07:12:00Z,27.2970,-97.4049,4.329,1111122 
TCOON,ioos:station:TCOON:068:1,2015-03-02T08:12:00Z,27.2970,-97.4049,4.324,1111122 
TCOON,ioos:station:TCOON:068:1,2015-03-02T09:12:00Z,27.2970,-97.4049,4.323,1111122 
TCOON,ioos:station:TCOON:068:1,2015-03-02T10:12:00Z,27.2970,-97.4049,4.327,1111122 
TCOON,ioos:station:TCOON:068:1,2015-03-02T11:18:00Z,27.2970,-97.4049,4.329,1111122 
TCOON,ioos:station:TCOON:068:1,2015-03-02T12:12:00Z,27.2970,-97.4049,4.331,1111122 
TCOON,ioos:station:TCOON:068:1,2015-03-02T13:12:00Z,27.2970,-97.4049,4.33,1111122 
TCOON,ioos:station:TCOON:068:1,2015-03-02T14:12:00Z,27.2970,-97.4049,4.331,1111122 
TCOON,ioos:station:TCOON:068:1,2015-03-02T15:18:00Z,27.2970,-97.4049,4.329,1111122 
TCOON,ioos:station:TCOON:068:1,2015-03-02T16:18:00Z,27.2970,-97.4049,4.334,1111122 
TCOON,ioos:station:TCOON:068:1,2015-03-02T17:18:00Z,27.2970,-97.4049,4.334,1111122 
TCOON,ioos:station:TCOON:068:1,2015-03-02T18:18:00Z,27.2970,-97.4049,4.324,1111122 
TCOON,ioos:station:TCOON:068:1,2015-03-02T19:18:00Z,27.2970,-97.4049,4.327,1111122 
TCOON,ioos:station:TCOON:068:1,2015-03-02T20:18:00Z,27.2970,-97.4049,4.324,1111122 
TCOON,ioos:station:TCOON:068:1,2015-03-02T21:18:00Z,27.2970,-97.4049,4.321,1111122 
TCOON,ioos:station:TCOON:068:1,2015-03-02T22:18:00Z,27.2970,-97.4049,4.315,1111122 
TCOON,ioos:station:TCOON:068:1,2015-03-02T23:30:00Z,27.2970,-97.4049,4.314,1111122 
TCOON,ioos:station:TCOON:068:1,2015-03-03T00:18:00Z,27.2970,-97.4049,4.314,1111122 
TCOON,ioos:station:TCOON:068:1,2015-03-03T01:18:00Z,27.2970,-97.4049,4.313,1111122 
TCOON,ioos:station:TCOON:068:1,2015-03-03T02:12:00Z,27.2970,-97.4049,4.309,1111122 
TCOON,ioos:station:TCOON:068:1,2015-03-03T03:12:00Z,27.2970,-97.4049,4.31,1111122 
TCOON,ioos:station:TCOON:068:1,2015-03-03T04:12:00Z,27.2970,-97.4049,4.311,1111122 
TCOON,ioos:station:TCOON:068:1,2015-03-03T05:18:00Z,27.2970,-97.4049,4.311,1111122 
TCOON,ioos:station:TCOON:068:1,2015-03-03T06:18:00Z,27.2970,-97.4049,4.312,1111122 
TCOON,ioos:station:TCOON:068:1,2015-03-03T07:12:00Z,27.2970,-97.4049,4.307,1111122 
TCOON,ioos:station:TCOON:068:1,2015-03-03T08:12:00Z,27.2970,-97.4049,4.306,1111122 
TCOON,ioos:station:TCOON:068:1,2015-03-03T09:12:00Z,27.2970,-97.4049,4.303,1111122 
TCOON,ioos:station:TCOON:068:1,2015-03-03T10:18:00Z,27.2970,-97.4049,4.303,1111122 
TCOON,ioos:station:TCOON:068:1,2015-03-03T11:12:00Z,27.2970,-97.4049,4.303,1111122 
TCOON,ioos:station:TCOON:068:1,2015-03-03T12:18:00Z,27.2970,-97.4049,4.301,1111122 
TCOON,ioos:station:TCOON:068:1,2015-03-03T13:18:00Z,27.2970,-97.4049,4.31,1111122 
TCOON,ioos:station:TCOON:068:1,2015-03-03T14:12:00Z,27.2970,-97.4049,4.307,1111122 
TCOON,ioos:station:TCOON:068:1,2015-03-03T15:18:00Z,27.2970,-97.4049,4.3,1111122 
TCOON,ioos:station:TCOON:068:1,2015-03-03T16:18:00Z,27.2970,-97.4049,4.298,1111122 
TCOON,ioos:station:TCOON:068:1,2015-03-03T17:18:00Z,27.2970,-97.4049,4.289,1111122 
TCOON,ioos:station:TCOON:068:1,2015-03-03T18:12:00Z,27.2970,-97.4049,4.286,1111122 
TCOON,ioos:station:TCOON:068:1,2015-03-03T19:18:00Z,27.2970,-97.4049,4.283,1111122 
TCOON,ioos:station:TCOON:068:1,2015-03-03T20:12:00Z,27.2970,-97.4049,4.288,1111122 
TCOON,ioos:station:TCOON:068:1,2015-03-03T21:18:00Z,27.2970,-97.4049,4.295,1111122 
TCOON,ioos:station:TCOON:068:1,2015-03-03T22:48:00Z,27.2970,-97.4049,4.289,1111122 
TCOON,ioos:station:TCOON:068:1,2015-03-03T23:18:00Z,27.2970,-97.4049,4.278,1111122 
TCOON,ioos:station:TCOON:068:1,2015-03-04T00:12:00Z,27.2970,-97.4049,4.252,1111122 
TCOON,ioos:station:TCOON:068:1,2015-03-04T01:12:00Z,27.2970,-97.4049,4.241,1111122 
TCOON,ioos:station:TCOON:068:1,2015-03-04T02:12:00Z,27.2970,-97.4049,4.24,1111122 
TCOON,ioos:station:TCOON:068:1,2015-03-04T03:12:00Z,27.2970,-97.4049,4.256,1111122 
TCOON,ioos:station:TCOON:068:1,2015-03-04T04:18:00Z,27.2970,-97.4049,4.262,1111122 
TCOON,ioos:station:TCOON:068:1,2015-03-04T05:12:00Z,27.2970,-97.4049,4.256,1111122 
TCOON,ioos:station:TCOON:068:1,2015-03-04T06:18:00Z,27.2970,-97.4049,4.256,1111122 
TCOON,ioos:station:TCOON:068:1,2015-03-04T07:12:00Z,27.2970,-97.4049,4.261,1111122 
TCOON,ioos:station:TCOON:068:1,2015-03-04T08:18:00Z,27.2970,-97.4049,4.258,1111122 
TCOON,ioos:station:TCOON:068:1,2015-03-04T09:12:00Z,27.2970,-97.4049,4.252,1111122 
TCOON,ioos:station:TCOON:068:1,2015-03-04T10:12:00Z,27.2970,-97.4049,4.252,1111122 
TCOON,ioos:station:TCOON:068:1,2015-03-04T11:12:00Z,27.2970,-97.4049,4.255,1111122 
TCOON,ioos:station:TCOON:068:1,2015-03-04T12:12:00Z,27.2970,-97.4049,4.254,1111122 
TCOON,ioos:station:TCOON:068:1,2015-03-04T13:18:00Z,27.2970,-97.4049,4.253,1111122 
TCOON,ioos:station:TCOON:068:1,2015-03-04T14:12:00Z,27.2970,-97.4049,4.251,1111122 
TCOON,ioos:station:TCOON:068:1,2015-03-04T15:18:00Z,27.2970,-97.4049,4.248,1111122 
TCOON,ioos:station:TCOON:068:1,2015-03-04T16:24:00Z,27.2970,-97.4049,4.249,1111122 
TCOON,ioos:station:TCOON:068:1,2015-03-04T17:18:00Z,27.2970,-97.4049,4.241,1111122 
TCOON,ioos:station:TCOON:068:1,2015-03-04T18:18:00Z,27.2970,-97.4049,4.233,1111122 
TCOON,ioos:station:TCOON:068:1,2015-03-04T19:24:00Z,27.2970,-97.4049,4.236,1111122 
TCOON,ioos:station:TCOON:068:1,2015-03-04T20:18:00Z,27.2970,-97.4049,4.241,1111122 
TCOON,ioos:station:TCOON:068:1,2015-03-04T21:12:00Z,27.2970,-97.4049,4.238,1111122 
TCOON,ioos:station:TCOON:068:1,2015-03-04T22:12:00Z,27.2970,-97.4049,4.233,1111122 
TCOON,ioos:station:TCOON:068:1,2015-03-04T23:12:00Z,27.2970,-97.4049,4.22,1111122 
TCOON,ioos:station:TCOON:068:1,2015-03-05T00:12:00Z,27.2970,-97.4049,4.221,1111122 
TCOON,ioos:station:TCOON:068:1,2015-03-05T01:12:00Z,27.2970,-97.4049,4.229,1111122 
TCOON,ioos:station:TCOON:068:1,2015-03-05T02:12:00Z,27.2970,-97.4049,4.236,1111122 
TCOON,ioos:station:TCOON:068:1,2015-03-05T03:12:00Z,27.2970,-97.4049,4.23,1111122 
TCOON,ioos:station:TCOON:068:1,2015-03-05T04:12:00Z,27.2970,-97.4049,4.233,1111122 
TCOON,ioos:station:TCOON:068:1,2015-03-05T05:18:00Z,27.2970,-97.4049,4.233,1111122 
TCOON,ioos:station:TCOON:068:1,2015-03-05T06:18:00Z,27.2970,-97.4049,4.197,1111122 
TCOON,ioos:station:TCOON:068:1,2015-03-05T07:12:00Z,27.2970,-97.4049,4.236,1111122 
TCOON,ioos:station:TCOON:068:1,2015-03-05T08:18:00Z,27.2970,-97.4049,4.278,1111122 
TCOON,ioos:station:TCOON:068:1,2015-03-05T09:18:00Z,27.2970,-97.4049,4.271,1111122 
TCOON,ioos:station:TCOON:068:1,2015-03-05T10:12:00Z,27.2970,-97.4049,4.261,1111122 
TCOON,ioos:station:TCOON:068:1,2015-03-05T11:18:00Z,27.2970,-97.4049,4.263,1111122 
TCOON,ioos:station:TCOON:068:1,2015-03-05T12:18:00Z,27.2970,-97.4049,4.275,1111122 
TCOON,ioos:station:TCOON:068:1,2015-03-05T13:18:00Z,27.2970,-97.4049,4.274,1111122 
TCOON,ioos:station:TCOON:068:1,2015-03-05T14:18:00Z,27.2970,-97.4049,4.274,1111122 
TCOON,ioos:station:TCOON:068:1,2015-03-05T15:12:00Z,27.2970,-97.4049,4.258,1111122 
TCOON,ioos:station:TCOON:068:1,2015-03-05T16:18:00Z,27.2970,-97.4049,4.288,1111122 
TCOON,ioos:station:TCOON:068:1,2015-03-05T17:18:00Z,27.2970,-97.4049,4.29,1111122 
TCOON,ioos:station:TCOON:068:1,2015-03-05T18:18:00Z,27.2970,-97.4049,4.292,1111122 
TCOON,ioos:station:TCOON:068:1,2015-03-05T19:18:00Z,27.2970,-97.4049,4.3,1111122 
TCOON,ioos:station:TCOON:068:1,2015-03-05T20:18:00Z,27.2970,-97.4049,4.302,1111122 
TCOON,ioos:station:TCOON:068:1,2015-03-05T21:18:00Z,27.2970,-97.4049,4.288,1111122 
TCOON,ioos:station:TCOON:068:1,2015-03-05T22:18:00Z,27.2970,-97.4049,4.278,1111122 
TCOON,ioos:station:TCOON:068:1,2015-03-05T23:12:00Z,27.2970,-97.4049,4.261,1111122 
TCOON,ioos:station:TCOON:068:1,2015-03-06T00:12:00Z,27.2970,-97.4049,4.249,1111122 
TCOON,ioos:station:TCOON:068:1,2015-03-06T01:12:00Z,27.2970,-97.4049,4.245,1111122 
TCOON,ioos:station:TCOON:068:1,2015-03-06T02:12:00Z,27.2970,-97.4049,4.244,1111122 
TCOON,ioos:station:TCOON:068:1,2015-03-06T03:12:00Z,27.2970,-97.4049,4.243,1111122 
TCOON,ioos:station:TCOON:068:1,2015-03-06T04:12:00Z,27.2970,-97.4049,4.252,1111122 
TCOON,ioos:station:TCOON:068:1,2015-03-06T05:24:00Z,27.2970,-97.4049,4.252,1111122 
TCOON,ioos:station:TCOON:068:1,2015-03-06T07:00:00Z,27.2970,-97.4049,4.265,1111122 
TCOON,ioos:station:TCOON:068:1,2015-03-06T07:12:00Z,27.2970,-97.4049,4.265,1111122 
TCOON,ioos:station:TCOON:068:1,2015-03-06T08:24:00Z,27.2970,-97.4049,4.255,1111122 
TCOON,ioos:station:TCOON:068:1,2015-03-06T09:24:00Z,27.2970,-97.4049,4.255,1111122 
TCOON,ioos:station:TCOON:068:1,2015-03-06T10:12:00Z,27.2970,-97.4049,4.256,1111122 
TCOON,ioos:station:TCOON:068:1,2015-03-06T11:18:00Z,27.2970,-97.4049,4.256,1111122 
TCOON,ioos:station:TCOON:068:1,2015-03-06T12:12:00Z,27.2970,-97.4049,4.256,1111122 
TCOON,ioos:station:TCOON:068:1,2015-03-06T13:18:00Z,27.2970,-97.4049,4.255,1111122 
TCOON,ioos:station:TCOON:068:1,2015-03-06T14:12:00Z,27.2970,-97.4049,4.259,1111122 
TCOON,ioos:station:TCOON:068:1,2015-03-06T15:12:00Z,27.2970,-97.4049,4.249,1111122 
TCOON,ioos:station:TCOON:068:1,2015-03-06T16:12:00Z,27.2970,-97.4049,4.248,1111122 
TCOON,ioos:station:TCOON:068:1,2015-03-06T17:18:00Z,27.2970,-97.4049,4.258,1111122 
TCOON,ioos:station:TCOON:068:1,2015-03-06T18:12:00Z,27.2970,-97.4049,4.256,1111122 
TCOON,ioos:station:TCOON:068:1,2015-03-06T19:12:00Z,27.2970,-97.4049,4.254,1111122 
TCOON,ioos:station:TCOON:068:1,2015-03-06T20:12:00Z,27.2970,-97.4049,4.245,1111122 
TCOON,ioos:station:TCOON:068:1,2015-03-06T21:12:00Z,27.2970,-97.4049,4.245,1111122 
TCOON,ioos:station:TCOON:068:1,2015-03-06T22:12:00Z,27.2970,-97.4049,4.245,1111122 
TCOON,ioos:station:TCOON:068:1,2015-03-06T23:12:00Z,27.2970,-97.4049,4.238,1111122 
TCOON,ioos:station:TCOON:068:1,2015-03-07T00:12:00Z,27.2970,-97.4049,4.242,1111122 
TCOON,ioos:station:TCOON:068:1,2015-03-07T01:12:00Z,27.2970,-97.4049,4.249,1111122 
TCOON,ioos:station:TCOON:068:1,2015-03-07T02:12:00Z,27.2970,-97.4049,4.251,1111122 
TCOON,ioos:station:TCOON:068:1,2015-03-07T03:12:00Z,27.2970,-97.4049,4.25,1111122 
TCOON,ioos:station:TCOON:068:1,2015-03-07T04:12:00Z,27.2970,-97.4049,4.25,1111122 
TCOON,ioos:station:TCOON:068:1,2015-03-07T05:12:00Z,27.2970,-97.4049,4.25,1111122 
TCOON,ioos:station:TCOON:068:1,2015-03-07T06:18:00Z,27.2970,-97.4049,4.252,1111122 
TCOON,ioos:station:TCOON:068:1,2015-03-07T07:18:00Z,27.2970,-97.4049,4.249,1111122 
TCOON,ioos:station:TCOON:068:1,2015-03-07T08:18:00Z,27.2970,-97.4049,4.25,1111122 
TCOON,ioos:station:TCOON:068:1,2015-03-07T09:12:00Z,27.2970,-97.4049,4.244,1111122 
TCOON,ioos:station:TCOON:068:1,2015-03-07T10:12:00Z,27.2970,-97.4049,4.235,1111122 
TCOON,ioos:station:TCOON:068:1,2015-03-07T11:12:00Z,27.2970,-97.4049,4.234,1111122 
TCOON,ioos:station:TCOON:068:1,2015-03-07T12:12:00Z,27.2970,-97.4049,4.227,1111122 
TCOON,ioos:station:TCOON:068:1,2015-03-07T13:12:00Z,27.2970,-97.4049,4.22,1111122 
TCOON,ioos:station:TCOON:068:1,2015-03-07T14:12:00Z,27.2970,-97.4049,4.219,1111122 
TCOON,ioos:station:TCOON:068:1,2015-03-07T15:12:00Z,27.2970,-97.4049,4.216,1111122 
TCOON,ioos:station:TCOON:068:1,2015-03-07T16:12:00Z,27.2970,-97.4049,4.215,1111122 
TCOON,ioos:station:TCOON:068:1,2015-03-07T17:12:00Z,27.2970,-97.4049,4.203,1111122 
TCOON,ioos:station:TCOON:068:1,2015-03-07T18:12:00Z,27.2970,-97.4049,4.199,1111122 
TCOON,ioos:station:TCOON:068:1,2015-03-07T19:12:00Z,27.2970,-97.4049,4.202,1111122 
TCOON,ioos:station:TCOON:068:1,2015-03-07T20:12:00Z,27.2970,-97.4049,4.203,1111122 
TCOON,ioos:station:TCOON:068:1,2015-03-07T21:12:00Z,27.2970,-97.4049,4.201,1111122 
TCOON,ioos:station:TCOON:068:1,2015-03-07T22:12:00Z,27.2970,-97.4049,4.193,1111122 
TCOON,ioos:station:TCOON:068:1,2015-03-07T23:12:00Z,27.2970,-97.4049,4.19,1111122 
TCOON,ioos:station:TCOON:068:1,2015-03-08T00:12:00Z,27.2970,-97.4049,4.194,1111122 
TCOON,ioos:station:TCOON:068:1,2015-03-08T01:12:00Z,27.2970,-97.4049,4.208,1111122 
TCOON,ioos:station:TCOON:068:1,2015-03-08T02:12:00Z,27.2970,-97.4049,4.211,1111122 
TCOON,ioos:station:TCOON:068:1,2015-03-08T03:12:00Z,27.2970,-97.4049,4.213,1111122 
TCOON,ioos:station:TCOON:068:1,2015-03-08T04:12:00Z,27.2970,-97.4049,4.205,1111122 
TCOON,ioos:station:TCOON:068:1,2015-03-08T05:12:00Z,27.2970,-97.4049,4.2,1111122 
TCOON,ioos:station:TCOON:068:1,2015-03-08T07:00:00Z,27.2970,-97.4049,4.203,1111122 
TCOON,ioos:station:TCOON:068:1,2015-03-08T07:12:00Z,27.2970,-97.4049,4.202,1111122 
TCOON,ioos:station:TCOON:068:1,2015-03-08T08:18:00Z,27.2970,-97.4049,4.207,1111122 
TCOON,ioos:station:TCOON:068:1,2015-03-08T09:12:00Z,27.2970,-97.4049,4.215,1111122 
TCOON,ioos:station:TCOON:068:1,2015-03-08T10:12:00Z,27.2970,-97.4049,4.218,1111122 
TCOON,ioos:station:TCOON:068:1,2015-03-08T11:18:00Z,27.2970,-97.4049,4.207,1111122 
TCOON,ioos:station:TCOON:068:1,2015-03-08T12:12:00Z,27.2970,-97.4049,4.201,1111122 
TCOON,ioos:station:TCOON:068:1,2015-03-08T13:12:00Z,27.2970,-97.4049,4.192,1111122 
TCOON,ioos:station:TCOON:068:1,2015-03-08T14:12:00Z,27.2970,-97.4049,4.198,1111122 
TCOON,ioos:station:TCOON:068:1,2015-03-08T15:12:00Z,27.2970,-97.4049,4.205,1111122 
TCOON,ioos:station:TCOON:068:1,2015-03-08T16:12:00Z,27.2970,-97.4049,4.207,1111122 
TCOON,ioos:station:TCOON:068:1,2015-03-08T17:12:00Z,27.2970,-97.4049,4.214,1111122 
TCOON,ioos:station:TCOON:068:1,2015-03-08T18:12:00Z,27.2970,-97.4049,4.227,1111122 
TCOON,ioos:station:TCOON:068:1,2015-03-08T19:12:00Z,27.2970,-97.4049,4.236,1111122 
TCOON,ioos:station:TCOON:068:1,2015-03-08T20:12:00Z,27.2970,-97.4049,4.233,1111122 
TCOON,ioos:station:TCOON:068:1,2015-03-08T21:12:00Z,27.2970,-97.4049,4.23,1111122 
TCOON,ioos:station:TCOON:068:1,2015-03-08T22:12:00Z,27.2970,-97.4049,4.231,1111122 
TCOON,ioos:station:TCOON:068:1,2015-03-08T23:12:00Z,27.2970,-97.4049,4.222,1111122 
TCOON,ioos:station:TCOON:068:1,2015-03-09T00:12:00Z,27.2970,-97.4049,4.219,1111122 
TCOON,ioos:station:TCOON:068:1,2015-03-09T01:12:00Z,27.2970,-97.4049,4.221,1111122 
TCOON,ioos:station:TCOON:068:1,2015-03-09T02:12:00Z,27.2970,-97.4049,4.224,1111122 
TCOON,ioos:station:TCOON:068:1,2015-03-09T03:12:00Z,27.2970,-97.4049,4.225,1111122 
TCOON,ioos:station:TCOON:068:1,2015-03-09T04:12:00Z,27.2970,-97.4049,4.238,1111122 
TCOON,ioos:station:TCOON:068:1,2015-03-09T05:18:00Z,27.2970,-97.4049,4.239,1111122 
TCOON,ioos:station:TCOON:068:1,2015-03-09T06:18:00Z,27.2970,-97.4049,4.233,1111122 
TCOON,ioos:station:TCOON:068:1,2015-03-09T07:12:00Z,27.2970,-97.4049,4.228,1111122 
TCOON,ioos:station:TCOON:068:1,2015-03-09T08:18:00Z,27.2970,-97.4049,4.231,1111122 
TCOON,ioos:station:TCOON:068:1,2015-03-09T09:18:00Z,27.2970,-97.4049,4.227,1111122 
TCOON,ioos:station:TCOON:068:1,2015-03-09T10:12:00Z,27.2970,-97.4049,4.241,1111122 
TCOON,ioos:station:TCOON:068:1,2015-03-09T11:18:00Z,27.2970,-97.4049,4.233,1111122 
TCOON,ioos:station:TCOON:068:1,2015-03-09T12:18:00Z,27.2970,-97.4049,4.238,1111122 
TCOON,ioos:station:TCOON:068:1,2015-03-09T13:18:00Z,27.2970,-97.4049,4.237,1111122 
TCOON,ioos:station:TCOON:068:1,2015-03-09T14:18:00Z,27.2970,-97.4049,4.229,1111122 
TCOON,ioos:station:TCOON:068:1,2015-03-09T15:12:00Z,27.2970,-97.4049,4.232,1111122 
TCOON,ioos:station:TCOON:068:1,2015-03-09T16:18:00Z,27.2970,-97.4049,4.25,1111122 
TCOON,ioos:station:TCOON:068:1,2015-03-09T17:18:00Z,27.2970,-97.4049,4.249,1111122 
TCOON,ioos:station:TCOON:068:1,2015-03-09T18:12:00Z,27.2970,-97.4049,4.25,1111122 
TCOON,ioos:station:TCOON:068:1,2015-03-09T19:18:00Z,27.2970,-97.4049,4.237,1111122 
TCOON,ioos:station:TCOON:068:1,2015-03-09T20:18:00Z,27.2970,-97.4049,4.234,1111122 
TCOON,ioos:station:TCOON:068:1,2015-03-09T22:48:00Z,27.2970,-97.4049,4.243,1111122 
TCOON,ioos:station:TCOON:068:1,2015-03-09T23:24:00Z,27.2970,-97.4049,4.244,1111122 
TCOON,ioos:station:TCOON:068:1,2015-03-10T00:12:00Z,27.2970,-97.4049,4.24,1111122 
TCOON,ioos:station:TCOON:068:1,2015-03-10T01:12:00Z,27.2970,-97.4049,4.244,1111122 
TCOON,ioos:station:TCOON:068:1,2015-03-10T02:12:00Z,27.2970,-97.4049,4.245,1111122 
TCOON,ioos:station:TCOON:068:1,2015-03-10T03:12:00Z,27.2970,-97.4049,4.243,1111122 
TCOON,ioos:station:TCOON:068:1,2015-03-10T04:18:00Z,27.2970,-97.4049,4.245,1111122 
TCOON,ioos:station:TCOON:068:1,2015-03-10T05:12:00Z,27.2970,-97.4049,4.248,1111122 
TCOON,ioos:station:TCOON:068:1,2015-03-10T07:00:00Z,27.2970,-97.4049,4.253,1111122 
TCOON,ioos:station:TCOON:068:1,2015-03-10T07:12:00Z,27.2970,-97.4049,4.255,1111122 
TCOON,ioos:station:TCOON:068:1,2015-03-10T08:18:00Z,27.2970,-97.4049,4.251,1111122 
TCOON,ioos:station:TCOON:068:1,2015-03-10T09:12:00Z,27.2970,-97.4049,4.249,1111122 
TCOON,ioos:station:TCOON:068:1,2015-03-10T10:12:00Z,27.2970,-97.4049,4.253,1111122 
TCOON,ioos:station:TCOON:068:1,2015-03-10T11:18:00Z,27.2970,-97.4049,4.245,1111122 
TCOON,ioos:station:TCOON:068:1,2015-03-10T12:12:00Z,27.2970,-97.4049,4.248,1111122 
TCOON,ioos:station:TCOON:068:1,2015-03-10T13:06:00Z,27.2970,-97.4049,4.241,1111122 
TCOON,ioos:station:TCOON:068:1,2015-03-10T14:18:00Z,27.2970,-97.4049,4.235,1111122 
TCOON,ioos:station:TCOON:068:1,2015-03-10T15:18:00Z,27.2970,-97.4049,4.238,1111122 
TCOON,ioos:station:TCOON:068:1,2015-03-10T16:18:00Z,27.2970,-97.4049,4.242,1111122 
TCOON,ioos:station:TCOON:068:1,2015-03-10T17:12:00Z,27.2970,-97.4049,4.25,1111122 
TCOON,ioos:station:TCOON:068:1,2015-03-10T18:12:00Z,27.2970,-97.4049,4.247,1111122 
TCOON,ioos:station:TCOON:068:1,2015-03-10T19:18:00Z,27.2970,-97.4049,4.246,1111122 
TCOON,ioos:station:TCOON:068:1,2015-03-10T20:12:00Z,27.2970,-97.4049,4.246,1111122 
TCOON,ioos:station:TCOON:068:1,2015-03-10T21:12:00Z,27.2970,-97.4049,4.249,1111122 
TCOON,ioos:station:TCOON:068:1,2015-03-10T22:12:00Z,27.2970,-97.4049,4.257,1111122 
TCOON,ioos:station:TCOON:068:1,2015-03-10T23:12:00Z,27.2970,-97.4049,4.255,1111122 
TCOON,ioos:station:TCOON:068:1,2015-03-11T00:12:00Z,27.2970,-97.4049,4.245,1111122 
TCOON,ioos:station:TCOON:068:1,2015-03-11T01:12:00Z,27.2970,-97.4049,4.23,1111122 
TCOON,ioos:station:TCOON:068:1,2015-03-11T02:12:00Z,27.2970,-97.4049,4.228,1111122 
TCOON,ioos:station:TCOON:068:1,2015-03-11T03:12:00Z,27.2970,-97.4049,4.225,1111122 
TCOON,ioos:station:TCOON:068:1,2015-03-11T04:18:00Z,27.2970,-97.4049,4.246,1111122 
TCOON,ioos:station:TCOON:068:1,2015-03-11T05:12:00Z,27.2970,-97.4049,4.259,1111122 
TCOON,ioos:station:TCOON:068:1,2015-03-11T07:00:00Z,27.2970,-97.4049,4.256,1111122 
TCOON,ioos:station:TCOON:068:1,2015-03-11T08:24:00Z,27.2970,-97.4049,4.242,1111122 
TCOON,ioos:station:TCOON:068:1,2015-03-11T09:18:00Z,27.2970,-97.4049,4.245,1111122 
TCOON,ioos:station:TCOON:068:1,2015-03-11T10:12:00Z,27.2970,-97.4049,4.236,1111122 
TCOON,ioos:station:TCOON:068:1,2015-03-11T11:12:00Z,27.2970,-97.4049,4.222,1111122 
TCOON,ioos:station:TCOON:068:1,2015-03-11T12:18:00Z,27.2970,-97.4049,4.237,1111122 
TCOON,ioos:station:TCOON:068:1,2015-03-11T13:18:00Z,27.2970,-97.4049,4.246,1111122 
TCOON,ioos:station:TCOON:068:1,2015-03-11T14:12:00Z,27.2970,-97.4049,4.249,1111122 
TCOON,ioos:station:TCOON:068:1,2015-03-11T15:18:00Z,27.2970,-97.4049,4.25,1111122 
TCOON,ioos:station:TCOON:068:1,2015-03-11T16:12:00Z,27.2970,-97.4049,4.25,1111122 
TCOON,ioos:station:TCOON:068:1,2015-03-11T17:18:00Z,27.2970,-97.4049,4.251,1111122 
TCOON,ioos:station:TCOON:068:1,2015-03-11T18:18:00Z,27.2970,-97.4049,4.256,1111122 
TCOON,ioos:station:TCOON:068:1,2015-03-11T19:18:00Z,27.2970,-97.4049,4.258,1111122 
TCOON,ioos:station:TCOON:068:1,2015-03-11T20:18:00Z,27.2970,-97.4049,4.247,1111122 
TCOON,ioos:station:TCOON:068:1,2015-03-11T21:12:00Z,27.2970,-97.4049,4.251,1111122 
TCOON,ioos:station:TCOON:068:1,2015-03-11T22:12:00Z,27.2970,-97.4049,4.257,1111122 
TCOON,ioos:station:TCOON:068:1,2015-03-11T23:18:00Z,27.2970,-97.4049,4.258,1111122 
TCOON,ioos:station:TCOON:068:1,2015-03-12T00:12:00Z,27.2970,-97.4049,4.261,1111122 
TCOON,ioos:station:TCOON:068:1,2015-03-12T01:12:00Z,27.2970,-97.4049,4.261,1111122 
TCOON,ioos:station:TCOON:068:1,2015-03-12T02:12:00Z,27.2970,-97.4049,4.266,1111122 
TCOON,ioos:station:TCOON:068:1,2015-03-12T03:12:00Z,27.2970,-97.4049,4.272,1111122 
TCOON,ioos:station:TCOON:068:1,2015-03-12T04:12:00Z,27.2970,-97.4049,4.269,1111122 
TCOON,ioos:station:TCOON:068:1,2015-03-12T05:12:00Z,27.2970,-97.4049,4.258,1111122 
TCOON,ioos:station:TCOON:068:1,2015-03-12T07:00:00Z,27.2970,-97.4049,4.253,1111122 
TCOON,ioos:station:TCOON:068:1,2015-03-12T07:18:00Z,27.2970,-97.4049,4.258,1111122 
TCOON,ioos:station:TCOON:068:1,2015-03-12T08:18:00Z,27.2970,-97.4049,4.257,1111122 
TCOON,ioos:station:TCOON:068:1,2015-03-12T09:24:00Z,27.2970,-97.4049,4.25,1111122 
TCOON,ioos:station:TCOON:068:1,2015-03-12T10:12:00Z,27.2970,-97.4049,4.259,1111122 
TCOON,ioos:station:TCOON:068:1,2015-03-12T11:12:00Z,27.2970,-97.4049,4.253,1111122 
TCOON,ioos:station:TCOON:068:1,2015-03-12T12:18:00Z,27.2970,-97.4049,4.245,1111122 
TCOON,ioos:station:TCOON:068:1,2015-03-12T13:12:00Z,27.2970,-97.4049,4.25,1111122 
TCOON,ioos:station:TCOON:068:1,2015-03-12T14:12:00Z,27.2970,-97.4049,4.256,1111122 
TCOON,ioos:station:TCOON:068:1,2015-03-12T15:18:00Z,27.2970,-97.4049,4.26,1111122 
TCOON,ioos:station:TCOON:068:1,2015-03-12T16:18:00Z,27.2970,-97.4049,4.255,1111122 
TCOON,ioos:station:TCOON:068:1,2015-03-12T17:12:00Z,27.2970,-97.4049,4.252,1111122 
TCOON,ioos:station:TCOON:068:1,2015-03-12T18:12:00Z,27.2970,-97.4049,4.244,1111122 
TCOON,ioos:station:TCOON:068:1,2015-03-12T19:18:00Z,27.2970,-97.4049,4.234,1111122 
TCOON,ioos:station:TCOON:068:1,2015-03-12T20:12:00Z,27.2970,-97.4049,4.231,1111122 
TCOON,ioos:station:TCOON:068:1,2015-03-12T21:12:00Z,27.2970,-97.4049,4.222,1111122 
TCOON,ioos:station:TCOON:068:1,2015-03-12T22:24:00Z,27.2970,-97.4049,4.219,1111122 